Wellsville, NY

8:51 AM EDT on May 30, 2017 (GMT -0400)
Wellsville Municipal-Tarantine

Weather History for KELZ - December, 2012

Change the Weather History Date:

Monday, December 24, 2012

  Actual Average (KDSV) Record (KDSV)
Temperature  
Mean Temperature 26 °F -  
Max Temperature 30 °F 37 °F 64 °F (2015)
Min Temperature 23 °F 19 °F -7 °F (1960)
Degree Days  
Heating Degree Days 38    
Moisture  
Dew Point 21 °F    
Average Humidity 80    
Maximum Humidity 93    
Minimum Humidity 61    
Precipitation  
Precipitation 0.06 in - - ()
Sea Level Pressure  
Sea Level Pressure 29.89 in    
Wind  
Wind Speed 6 mph (SSE)    
Max Wind Speed 12 mph    
Max Gust Speed 20 mph    
Visibility 6 miles    
Events Fog , Snow    
Averages and records for this station are not official NWS values.
T = Trace of Precipitation, MM = Missing Value Source: NWS Daily Summary

Daily Weather History Graph

Daily Weather History Graph

Search for Another Location

Airport or City:

Trip Planner

Search our weather history database for the weather conditions in past years. The results will help you decide how hot, cold, wet, or windy it might be!

Date:

Astronomy

Dec. 24, 2012 Rise Set
Actual Time 7:38 AM EST 4:45 PM EST
Civil Twilight 7:06 AM EST 5:17 PM EST
Nautical Twilight 6:31 AM EST 5:52 PM EST
Astronomical Twilight 5:57 AM EST 6:26 PM EST
Moon 2:12 PM EST (12/24) 4:13 AM EST (12/24)
Length of Visible Light 10h 10m
Length of Day
9h 06m
Waxing Gibbous, 88% of the Moon is Illuminated
Dec 24
Waxing Gibbous
Dec 28
Full
Jan 4
Last Quarter
Jan 11
New
Jan 18
First Quarter

Hourly Weather History & Observations

Time (EST) Temp. Windchill Dew Point Humidity Pressure Visibility Wind Dir Wind Speed Gust Speed Precip Events Conditions
12:56 AM 27.0 °F 17.3 °F 19.0 °F 72% 29.99 in 10.0 mi WNW 10.4 mph 19.6 mph N/A   Overcast
1:56 AM 26.1 °F 16.2 °F 18.0 °F 71% 29.99 in 10.0 mi NW 10.4 mph - N/A   Overcast
2:56 AM 26.1 °F 17.6 °F 17.1 °F 69% 30.01 in 10.0 mi NW 8.1 mph - N/A   Overcast
3:56 AM 25.0 °F 16.3 °F 17.1 °F 72% 30.01 in 10.0 mi NNW 8.1 mph - N/A   Overcast
4:56 AM 24.1 °F 18.2 °F 17.1 °F 75% 30.02 in 10.0 mi NNW 4.6 mph - N/A   Overcast
5:56 AM 24.1 °F - 16.0 °F 71% 30.04 in 10.0 mi Calm Calm - N/A   Overcast
6:56 AM 23.0 °F - 16.0 °F 74% 30.05 in 10.0 mi Calm Calm - N/A   Overcast
7:56 AM 23.0 °F - 16.0 °F 74% 30.05 in 10.0 mi Calm Calm - N/A   Overcast
8:56 AM 24.1 °F 19.7 °F 17.1 °F 75% 30.04 in 10.0 mi SE 3.5 mph - N/A   Overcast
9:23 AM 24.8 °F 19.1 °F 17.6 °F 74% 29.96 in 10.0 mi SSE 4.6 mph - N/A   Scattered Clouds
9:56 AM 25.0 °F 17.1 °F 17.1 °F 72% 30.04 in 10.0 mi SSE 6.9 mph - N/A   Clear
10:56 AM 27.0 °F 20.5 °F 18.0 °F 69% 30.02 in 10.0 mi ESE 5.8 mph - N/A   Clear
11:56 AM 28.0 °F 22.8 °F 19.0 °F 69% 29.99 in 10.0 mi Variable 4.6 mph - N/A   Clear
12:56 PM 30.0 °F 22.4 °F 19.0 °F 64% 29.97 in 10.0 mi SE 8.1 mph - N/A   Clear
1:56 PM 30.9 °F 24.3 °F 19.0 °F 61% 29.93 in 10.0 mi SE 6.9 mph - N/A   Clear
2:56 PM 30.0 °F 25.2 °F 19.0 °F 64% 29.94 in 10.0 mi ESE 4.6 mph - N/A   Clear
3:56 PM 30.0 °F 20.5 °F 19.0 °F 64% 29.91 in 10.0 mi SE 11.5 mph - N/A   Clear
4:56 PM 28.9 °F 20.4 °F 19.0 °F 67% 29.90 in 10.0 mi SE 9.2 mph - N/A   Clear
5:48 PM 28.4 °F 20.4 °F 19.4 °F 69% 29.81 in 10.0 mi SSE 8.1 mph - N/A   Mostly Cloudy
5:56 PM 30.0 °F 20.5 °F 19.9 °F 66% 29.90 in 10.0 mi SSE 11.5 mph - N/A   Mostly Cloudy
6:56 PM 28.9 °F 20.4 °F 19.9 °F 69% 29.89 in 10.0 mi SSE 9.2 mph - N/A   Overcast
7:56 PM 28.0 °F 20.0 °F 23.0 °F 81% 29.89 in 2.5 mi SSE 8.1 mph - 0.00 in Snow Light Snow
8:10 PM 26.6 °F 17.5 °F 23.0 °F 86% 29.81 in 1.2 mi SSE 9.2 mph - 0.00 in Snow Light Snow
8:21 PM 26.6 °F 19.1 °F 24.8 °F 93% 29.80 in 0.8 mi SE 6.9 mph - 0.01 in Snow Light Snow
8:38 PM 26.6 °F 21.2 °F 24.8 °F 93% 29.80 in 1.0 mi SE 4.6 mph - 0.02 in Snow Light Snow
8:56 PM 27.0 °F 21.6 °F 24.1 °F 89% 29.88 in 1.8 mi SE 4.6 mph - 0.03 in Snow Light Snow
9:04 PM 26.6 °F 19.1 °F 24.8 °F 93% 29.79 in 2.5 mi SSE 6.9 mph - 0.00 in Snow Light Snow
9:11 PM 26.6 °F 19.1 °F 24.8 °F 93% 29.79 in 3.0 mi SE 6.9 mph - 0.00 in Snow Light Snow
9:21 PM 26.6 °F 21.2 °F 24.8 °F 93% 29.79 in 2.0 mi SSE 4.6 mph - 0.00 in Snow Light Snow
9:29 PM 26.6 °F 21.2 °F 24.8 °F 93% 29.79 in 1.5 mi SSE 4.6 mph - 0.00 in Snow Light Snow
9:43 PM 26.6 °F 20.0 °F 24.8 °F 93% 29.79 in 2.5 mi SSE 5.8 mph - 0.00 in Snow Light Snow
9:53 PM 26.6 °F 20.0 °F 24.8 °F 93% 29.78 in 3.0 mi SSE 5.8 mph - 0.00 in Snow Light Snow
9:56 PM 27.0 °F 18.7 °F 24.1 °F 89% 29.87 in 3.0 mi SSE 8.1 mph - 0.00 in Snow Light Snow
10:09 PM 26.6 °F 22.6 °F 24.8 °F 93% 29.79 in 3.0 mi SSE 3.5 mph - 0.00 in Snow Light Snow
10:21 PM 28.4 °F 24.6 °F 24.8 °F 86% 29.79 in 4.0 mi SSE 3.5 mph - 0.01 in Snow Light Snow
10:54 PM 28.4 °F 21.2 °F 24.8 °F 86% 29.80 in 1.8 mi SSE 6.9 mph - 0.01 in Snow Light Snow
10:56 PM 28.0 °F 20.8 °F 24.1 °F 85% 29.87 in 1.8 mi SSE 6.9 mph - 0.01 in Snow Light Snow
11:07 PM 28.4 °F - 24.8 °F 86% 29.80 in 0.8 mi Calm Calm - 0.01 in Snow Light Snow
11:19 PM 28.4 °F - 24.8 °F 86% 29.80 in 0.5 mi Calm Calm - 0.02 in Fog , Snow Snow
11:28 PM 28.4 °F - 24.8 °F 86% 29.80 in 1.5 mi Calm Calm - 0.02 in Snow Light Snow
11:32 PM 28.4 °F - 24.8 °F 86% 29.80 in 3.0 mi Calm Calm - 0.02 in Snow Light Snow
11:39 PM 28.4 °F 24.6 °F 24.8 °F 86% 29.80 in 2.5 mi SSW 3.5 mph - 0.02 in Snow Light Snow
11:46 PM 28.4 °F 24.6 °F 24.8 °F 86% 29.80 in 3.0 mi SSW 3.5 mph - 0.02 in Snow Light Snow
11:56 PM 28.0 °F 24.2 °F 24.1 °F 85% 29.88 in 4.0 mi SSW 3.5 mph - 0.02 in Snow Light Snow